This is the latest recevied weather packets stored in our database for station/object SR8WXB-1. If no packets are shown the sender has not sent any weather packets the latest 1 day(s).
| Time | Temp. | Humidity | Pressure | Rain* | Wind** | Luminosity | Snow |
|---|---|---|---|---|---|---|---|
| 1778002954 | 18.89° C | 100% | 938.9 hPa | - | 9.83 m/s, 240° | - | - |
| 1778002711 | 18.89° C | 100% | 938.9 hPa | - | 9.83 m/s, 236° | - | - |
| 1778002471 | 18.89° C | 100% | 938.9 hPa | - | 9.39 m/s, 237° | - | - |
| 1778002231 | 18.89° C | 100% | 938.9 hPa | - | 9.83 m/s, 240° | - | - |
| 1778001509 | 19.44° C | 100% | 938.9 hPa | - | 10.73 m/s, 240° | - | - |
| 1778001268 | 19.44° C | 100% | 938.9 hPa | - | 10.73 m/s, 240° | - | - |
| 1778001028 | 19.44° C | 100% | 938.9 hPa | - | 12.07 m/s, 238° | - | - |
| 1778000788 | 19.44° C | 100% | 938.9 hPa | - | 10.73 m/s, 241° | - | - |
| 1778000548 | 19.44° C | 100% | 938.9 hPa | - | 10.28 m/s, 238° | - | - |
| 1778000305 | 19.44° C | 100% | 938.9 hPa | - | 11.62 m/s, 240° | - | - |
| 1778000066 | 19.44° C | 100% | 938.9 hPa | - | 10.73 m/s, 243° | - | - |
| 1777999822 | 19.44° C | 100% | 939 hPa | - | 10.28 m/s, 243° | - | - |
| 1777999582 | 19.44° C | 100% | 939 hPa | - | 10.73 m/s, 244° | - | - |
| 1777999342 | 19.44° C | 100% | 939 hPa | - | 9.83 m/s, 244° | - | - |
| 1777999099 | 19.44° C | 100% | 939 hPa | - | 11.18 m/s, 243° | - | - |
| 1777998859 | 20° C | 100% | 939 hPa | - | 10.73 m/s, 239° | - | - |
| 1777998619 | 20° C | 100% | 939 hPa | - | 9.83 m/s, 241° | - | - |
| 1777998379 | 20° C | 100% | 939.1 hPa | - | 12.52 m/s, 242° | - | - |
| 1777998140 | 20° C | 100% | 939 hPa | - | 12.52 m/s, 244° | - | - |
| 1777997897 | 20° C | 100% | 939 hPa | - | 10.73 m/s, 243° | - | - |
| 1777997657 | 20° C | 100% | 939.1 hPa | - | 12.07 m/s, 247° | - | - |
| 1777997408 | 20° C | 100% | 939.1 hPa | - | 12.96 m/s, 242° | - | - |
| 1777997168 | 20° C | 100% | 939.2 hPa | - | 10.73 m/s, 244° | - | - |
| 1777996928 | 20° C | 100% | 939.2 hPa | - | 11.18 m/s, 243° | - | - |
| 1777996685 | 20° C | 100% | 939.2 hPa | - | 11.18 m/s, 243° | - | - |
* Rain since midnight (hover to see other rain measurements)
** Current wind speed in m/s (hover to see current wind gust speed)